Home > Weather > Salinas > Past weeks

Flag for U.S.A. Weather for the Past 2 Weeks in Salinas, California, U.S.A.

Now
69 °F

Sunny.


Feels Like: 69 °F
Forecast: 45 / 72 °F
Wind: 12 mph from Northwest

Location: Salinas Municipal Airport

Current Time: Feb 6, 2016 at 6:27:02 PM

Latest Report: Feb 6, 2016 at 4:53 PM


Visibility: 10 mi

Pressure: 30.29 "Hg

Humidity: 41%

Dew point: 44 °F

Location of SalinasLocation

Historic Weather in Salinas — Graph

°F

Salinas Temperature Yesterday

Maximum temperature yesterday: 69 °F (at 2:53 PM)
Minimum temperature yesterday: 42 °F (at 6:53 AM)
Average temperature yesterday: 52 °F

High & Low Weather Summary for the Past Weeks

 TemperatureHumidityPressure
High72 °F (Feb 6, 3:53 PM)93% (Jan 25, 4:53 AM)30.47 "Hg (Jan 25, 4:53 AM)
Low37 °F (Feb 2, 1:53 AM)28% (Feb 1, 12:53 PM)29.78 "Hg (Jan 31, 2:53 PM)
Average52 °F73%30.24 "Hg
* Reported Jan 22 5:00 PM — Feb 6 4:53 PM, Salinas, Weather by CustomWeather, © 2016

Note: Actual official high and low records may vary slightly from our data, if they occured in-between our weather recording intervals... More about our weather records

Advertising

Salinas Weather History for the Previous 24 Hours

 ConditionsComfort  
Time TempWeatherWind HumidityBarometerVisibility
4:53 PM
Sat, Feb 6
69 °FSunny.12 mph41%30.29 "Hg10 mi
3:53 PM72 °FSunny.No wind34%30.29 "Hg10 mi
2:53 PM70 °FSunny.5 mph37%30.30 "Hg10 mi
1:53 PM67 °FSunny.No wind33%30.32 "Hg10 mi
12:53 PM65 °FSunny.3 mph44%30.34 "Hg10 mi
11:53 AM62 °FSunny.No wind46%30.39 "Hg10 mi
10:53 AM57 °FSunny.3 mph51%30.41 "Hg10 mi
9:53 AM53 °FSunny.7 mph59%30.43 "Hg10 mi
8:53 AM49 °FSunny.12 mph64%30.42 "Hg10 mi
7:53 AM48 °FSunny.10 mph66%30.41 "Hg10 mi
6:53 AM46 °FClear.13 mph68%30.40 "Hg10 mi
5:53 AM45 °FClear.15 mph71%30.38 "Hg10 mi
4:53 AM46 °FClear.15 mph71%30.37 "Hg10 mi
3:53 AM46 °FClear.7 mph77%30.39 "Hg10 mi
2:53 AM47 °FClear.9 mph77%30.39 "Hg10 mi
1:53 AM47 °FClear.8 mph80%30.40 "Hg10 mi
12:53 AM47 °FClear.8 mph83%30.41 "Hg10 mi
11:53 PM
Fri, Feb 5
46 °FClear.8 mph86%30.43 "Hg10 mi
10:53 PM45 °FClear.3 mph82%30.44 "Hg10 mi
9:53 PM49 °FClear.No wind80%30.41 "Hg10 mi
8:53 PM52 °FClear.No wind80%30.40 "Hg10 mi
7:53 PM53 °FClear.5 mph86%30.39 "Hg9 mi
6:53 PM55 °FClear.5 mph80%30.38 "Hg10 mi
Weather by CustomWeather, © 2016

See weather overviewHow to use our weather pages